GFSGBSN_prec_precacc6_192.txt.gz
Total_Precipitation_Accumulation
0.08 0.14 0.26 0.29 0.24 0.15 0.09 0.05 0.02 0.00 0.00 0.00 0.00 0.00 0.00 0.00 0.00 0.00 0.00 0.00 0.00 0.00 0.00 0.00 0.00 0.00 0.00 0.00 0.00 0.00 0.00 0.00 0.00 0.00 0.00 0.00 0.00 0.00 0.00 0.00 0.00 0.00 0.00 0.00 0.00 0.00 0.00
0.12 0.12 0.15 0.31 0.46 0.38 0.25 0.18 0.12 0.05 0.00 0.00 0.00 0.00 0.00 0.00 0.00 0.00 0.00 0.00 0.00 0.00 0.00 0.00 0.00 0.00 0.00 0.00 0.00 0.00 0.00 0.00 0.00 0.00 0.00 0.00 0.00 0.00 0.00 0.00 0.00 0.00 0.00 0.00 0.00 0.00 0.00
0.09 0.17 0.19 0.20 0.28 0.37 0.37 0.25 0.18 0.14 0.06 0.01 0.00 0.00 0.00 0.00 0.00 0.00 0.00 0.00 0.00 0.00 0.00 0.00 0.00 0.00 0.00 0.00 0.00 0.00 0.00 0.00 0.00 0.00 0.00 0.00 0.00 0.00 0.00 0.00 0.00 0.00 0.00 0.00 0.00 0.00 0.00
0.05 0.10 0.21 0.28 0.27 0.33 0.41 0.43 0.28 0.15 0.07 0.02 0.00 0.00 0.00 0.00 0.00 0.00 0.00 0.00 0.00 0.00 0.00 0.00 0.00 0.00 0.00 0.00 0.00 0.00 0.00 0.00 0.00 0.00 0.00 0.00 0.00 0.00 0.00 0.00 0.00 0.00 0.00 0.00 0.00 0.00 0.00
0.02 0.03 0.06 0.14 0.23 0.30 0.41 0.46 0.46 0.31 0.18 0.11 0.05 0.00 0.00 0.00 0.00 0.00 0.00 0.00 0.00 0.00 0.00 0.00 0.00 0.00 0.00 0.00 0.00 0.00 0.00 0.00 0.00 0.00 0.00 0.00 0.00 0.00 0.00 0.00 0.00 0.00 0.00 0.00 0.00 0.00 0.00
0.01 0.03 0.04 0.06 0.09 0.15 0.20 0.36 0.47 0.44 0.32 0.13 0.09 0.05 0.00 0.00 0.00 0.00 0.00 0.00 0.00 0.00 0.00 0.00 0.00 0.00 0.00 0.00 0.00 0.00 0.00 0.00 0.00 0.00 0.00 0.00 0.00 0.00 0.00 0.00 0.00 0.00 0.00 0.00 0.00 0.00 0.00
0.01 0.02 0.06 0.08 0.12 0.14 0.18 0.19 0.29 0.47 0.52 0.45 0.20 0.12 0.05 0.01 0.00 0.00 0.01 0.01 0.00 0.00 0.00 0.00 0.00 0.00 0.00 0.00 0.00 0.00 0.00 0.00 0.00 0.00 0.00 0.00 0.00 0.00 0.00 0.00 0.00 0.00 0.00 0.00 0.00 0.00 0.00
0.02 0.01 0.02 0.04 0.07 0.12 0.18 0.20 0.20 0.24 0.35 0.51 0.58 0.40 0.17 0.08 0.00 0.00 0.00 0.00 0.00 0.00 0.00 0.00 0.00 0.00 0.00 0.00 0.00 0.00 0.00 0.00 0.00 0.00 0.00 0.00 0.00 0.00 0.00 0.00 0.00 0.00 0.00 0.00 0.00 0.00 0.00
0.02 0.02 0.02 0.02 0.03 0.04 0.07 0.12 0.21 0.29 0.25 0.31 0.41 0.56 0.55 0.28 0.08 0.01 0.00 0.00 0.00 0.00 0.00 0.00 0.00 0.00 0.00 0.00 0.00 0.00 0.00 0.00 0.00 0.00 0.00 0.00 0.00 0.00 0.00 0.00 0.00 0.00 0.00 0.00 0.00 0.00 0.00
0.02 0.01 0.00 0.01 0.01 0.03 0.08 0.08 0.08 0.15 0.27 0.33 0.38 0.47 0.64 0.76 0.49 0.06 0.01 0.00 0.00 0.00 0.07 0.06 0.00 0.00 0.00 0.00 0.00 0.00 0.00 0.00 0.00 0.00 0.00 0.00 0.00 0.00 0.00 0.00 0.00 0.00 0.00 0.00 0.00 0.00 0.00
0.01 0.01 0.01 0.01 0.01 0.01 0.04 0.09 0.09 0.09 0.14 0.22 0.35 0.57 0.79 0.87 0.54 0.16 0.02 0.01 0.01 0.07 0.42 0.23 0.01 0.00 0.00 0.00 0.00 0.00 0.00 0.00 0.00 0.00 0.00 0.00 0.00 0.00 0.00 0.00 0.00 0.00 0.00 0.00 0.00 0.00 0.00
0.01 0.01 0.01 0.00 0.00 0.00 0.00 0.02 0.05 0.07 0.12 0.20 0.28 0.57 1.01 0.89 0.58 0.23 0.04 0.05 0.18 0.63 1.12 0.33 0.00 0.00 0.00 0.00 0.00 0.00 0.00 0.00 0.00 0.00 0.00 0.00 0.00 0.00 0.00 0.00 0.00 0.00 0.00 0.00 0.00 0.00 0.00
0.00 0.00 0.01 0.01 0.01 0.01 0.00 0.00 0.00 0.02 0.07 0.16 0.28 0.56 0.95 0.72 0.88 0.45 0.34 0.43 0.89 1.41 0.78 0.13 0.00 0.00 0.00 0.00 0.00 0.00 0.00 0.00 0.00 0.00 0.00 0.00 0.00 0.00 0.00 0.00 0.00 0.00 0.00 0.00 0.00 0.00 0.00
0.01 0.01 0.01 0.01 0.01 0.01 0.01 0.01 0.00 0.00 0.02 0.09 0.24 0.52 0.80 0.68 0.61 0.51 0.38 0.56 1.50 1.16 0.33 0.01 0.00 0.00 0.00 0.00 0.00 0.00 0.00 0.00 0.00 0.00 0.00 0.00 0.00 0.00 0.00 0.00 0.00 0.00 0.00 0.00 0.00 0.00 0.00
0.02 0.02 0.02 0.01 0.01 0.01 0.01 0.01 0.01 0.01 0.01 0.04 0.27 0.65 1.01 1.34 1.20 1.01 0.72 1.31 1.48 0.61 0.08 0.00 0.00 0.00 0.00 0.00 0.00 0.00 0.00 0.00 0.00 0.00 0.00 0.00 0.00 0.00 0.00 0.00 0.00 0.00 0.00 0.00 0.00 0.00 0.00
0.02 0.02 0.02 0.02 0.01 0.01 0.01 0.01 0.01 0.02 0.01 0.06 0.35 0.84 1.32 1.39 1.41 1.16 0.91 1.28 0.92 0.22 0.01 0.00 0.00 0.00 0.00 0.00 0.00 0.00 0.00 0.00 0.00 0.00 0.00 0.00 0.00 0.00 0.00 0.00 0.00 0.00 0.00 0.00 0.00 0.00 0.00
0.01 0.02 0.03 0.04 0.04 0.03 0.03 0.02 0.01 0.01 0.05 0.16 0.38 0.86 1.07 1.10 1.42 1.26 1.42 1.35 0.86 0.26 0.06 0.03 0.03 0.00 0.00 0.00 0.00 0.00 0.00 0.00 0.00 0.00 0.00 0.00 0.00 0.00 0.00 0.00 0.00 0.00 0.00 0.00 0.00 0.00 0.00
0.02 0.04 0.11 0.09 0.08 0.05 0.04 0.04 0.05 0.04 0.11 0.31 0.48 0.76 0.87 1.03 1.57 1.60 1.38 1.09 0.68 0.35 0.31 0.28 0.16 0.04 0.01 0.01 0.01 0.01 0.01 0.00 0.00 0.00 0.00 0.00 0.01 0.03 0.01 0.00 0.00 0.00 0.00 0.00 0.00 0.00 0.00
0.03 0.07 0.17 0.15 0.20 0.28 0.12 0.08 0.09 0.17 0.21 0.33 0.66 0.71 0.89 0.89 1.14 1.21 1.01 0.93 0.72 0.43 0.36 0.31 0.19 0.07 0.05 0.03 0.08 0.07 0.04 0.01 0.00 0.00 0.00 0.00 0.01 0.10 0.15 0.05 0.00 0.00 0.00 0.00 0.00 0.00 0.00
0.03 0.09 0.19 0.21 0.42 0.92 0.67 0.10 0.04 0.07 0.22 0.31 0.71 0.91 1.25 1.40 0.94 0.63 0.47 0.52 0.50 0.40 0.25 0.21 0.18 0.10 0.10 0.21 0.20 0.13 0.05 0.03 0.00 0.00 0.00 0.00 0.01 0.03 0.05 0.02 0.00 0.00 0.00 0.00 0.00 0.00 0.00
0.03 0.10 0.25 0.37 0.73 1.20 1.45 0.89 0.42 0.30 0.26 0.49 0.66 0.71 0.71 0.89 0.91 0.62 0.23 0.23 0.18 0.29 0.36 0.24 0.28 0.18 0.14 0.32 0.33 0.19 0.08 0.06 0.04 0.01 0.00 0.01 0.03 0.05 0.07 0.01 0.00 0.00 0.00 0.00 0.00 0.00 0.01
0.03 0.09 0.32 0.67 0.82 0.78 1.11 1.23 0.86 0.50 0.38 0.53 0.63 0.56 0.31 0.12 0.16 0.22 0.24 0.30 0.15 0.19 0.27 0.22 0.14 0.16 0.12 0.16 0.13 0.14 0.07 0.05 0.07 0.03 0.02 0.02 0.06 0.05 0.03 0.00 0.00 0.00 0.00 0.00 0.00 0.00 0.00
0.02 0.04 0.34 0.69 0.77 0.59 0.92 1.12 0.89 0.51 0.32 0.43 0.34 0.17 0.15 0.19 0.12 0.11 0.17 0.20 0.18 0.14 0.27 0.14 0.10 0.15 0.21 0.15 0.09 0.08 0.08 0.09 0.07 0.04 0.06 0.04 0.03 0.02 0.02 0.00 0.00 0.00 0.00 0.00 0.00 0.00 0.00
0.01 0.01 0.13 0.47 0.60 0.59 0.77 0.97 0.97 0.60 0.33 0.33 0.30 0.19 0.18 0.36 0.26 0.23 0.14 0.08 0.12 0.10 0.20 0.30 0.22 0.23 0.32 0.19 0.19 0.20 0.17 0.13 0.10 0.08 0.04 0.02 0.01 0.01 0.00 0.00 0.00 0.00 0.00 0.00 0.00 0.00 0.00
0.00 0.00 0.03 0.16 0.38 0.50 0.59 0.64 0.85 0.78 0.46 0.34 0.33 0.26 0.29 0.47 0.36 0.30 0.20 0.22 0.24 0.23 0.25 0.30 0.27 0.18 0.19 0.12 0.14 0.17 0.13 0.09 0.07 0.02 0.01 0.00 0.00 0.01 0.00 0.00 0.00 0.00 0.00 0.00 0.00 0.00 0.00
0.00 0.00 0.01 0.03 0.20 0.32 0.44 0.42 0.48 0.59 0.52 0.35 0.33 0.23 0.23 0.35 0.37 0.22 0.20 0.15 0.25 0.37 0.50 0.43 0.26 0.16 0.09 0.07 0.05 0.05 0.05 0.03 0.02 0.01 0.01 0.00 0.01 0.01 0.00 0.00 0.00 0.00 0.00 0.00 0.00 0.00 0.00
0.00 0.00 0.00 0.01 0.07 0.16 0.25 0.24 0.21 0.25 0.29 0.31 0.31 0.17 0.18 0.39 0.43 0.17 0.24 0.33 0.23 0.18 0.25 0.23 0.20 0.11 0.04 0.03 0.03 0.02 0.01 0.01 0.00 0.00 0.01 0.02 0.02 0.02 0.01 0.00 0.00 0.00 0.00 0.00 0.00 0.00 0.00
0.00 0.00 0.00 0.01 0.02 0.04 0.08 0.12 0.10 0.10 0.11 0.12 0.20 0.13 0.07 0.28 0.49 0.26 0.13 0.14 0.12 0.06 0.11 0.12 0.07 0.05 0.03 0.02 0.01 0.01 0.00 0.00 0.00 0.00 0.00 0.00 0.01 0.01 0.01 0.01 0.00 0.00 0.00 0.00 0.00 0.00 0.00
0.00 0.00 0.00 0.01 0.01 0.01 0.01 0.03 0.03 0.03 0.03 0.01 0.08 0.05 0.02 0.10 0.29 0.17 0.15 0.08 0.03 0.01 0.01 0.01 0.01 0.01 0.01 0.00 0.00 0.00 0.00 0.00 0.00 0.00 0.00 0.00 0.00 0.00 0.00 0.00 0.00 0.00 0.00 0.00 0.00 0.00 0.00

GFSGBSN_prec_precacc6_195.txt.gz
Total_Precipitation_Accumulation
0.01 0.03 0.11 0.17 0.19 0.20 0.19 0.16 0.12 0.06 0.03 0.01 0.00 0.00 0.00 0.00 0.00 0.00 0.00 0.00 0.00 0.00 0.00 0.00 0.00 0.00 0.00 0.00 0.00 0.00 0.00 0.00 0.00 0.00 0.00 0.00 0.00 0.00 0.00 0.00 0.00 0.00 0.00 0.00 0.00 0.00 0.00
0.01 0.01 0.04 0.11 0.21 0.27 0.31 0.33 0.27 0.19 0.11 0.04 0.01 0.00 0.00 0.00 0.00 0.00 0.00 0.00 0.00 0.00 0.00 0.00 0.00 0.00 0.00 0.00 0.00 0.00 0.00 0.00 0.00 0.00 0.00 0.00 0.00 0.00 0.00 0.00 0.00 0.00 0.00 0.00 0.00 0.00 0.00
0.01 0.02 0.04 0.08 0.13 0.25 0.35 0.36 0.36 0.36 0.30 0.21 0.11 0.03 0.00 0.00 0.00 0.00 0.00 0.00 0.00 0.00 0.00 0.00 0.00 0.00 0.00 0.00 0.00 0.00 0.00 0.00 0.00 0.00 0.00 0.00 0.00 0.00 0.00 0.00 0.00 0.00 0.00 0.00 0.00 0.00 0.00
0.01 0.01 0.02 0.08 0.12 0.19 0.29 0.36 0.40 0.35 0.34 0.21 0.16 0.08 0.03 0.00 0.00 0.00 0.00 0.00 0.00 0.00 0.00 0.00 0.00 0.00 0.00 0.00 0.00 0.00 0.00 0.00 0.00 0.00 0.00 0.00 0.00 0.00 0.00 0.00 0.00 0.00 0.00 0.00 0.00 0.00 0.00
0.01 0.01 0.01 0.03 0.08 0.15 0.23 0.31 0.43 0.50 0.42 0.39 0.27 0.19 0.07 0.03 0.00 0.00 0.00 0.00 0.00 0.00 0.00 0.00 0.00 0.00 0.00 0.00 0.00 0.00 0.00 0.00 0.00 0.00 0.00 0.00 0.00 0.00 0.00 0.00 0.00 0.00 0.00 0.00 0.00 0.00 0.00
0.01 0.02 0.02 0.01 0.01 0.02 0.07 0.15 0.24 0.36 0.49 0.41 0.37 0.29 0.21 0.11 0.04 0.00 0.00 0.00 0.00 0.00 0.00 0.00 0.00 0.00 0.00 0.00 0.00 0.00 0.00 0.00 0.00 0.00 0.00 0.00 0.00 0.00 0.00 0.00 0.00 0.00 0.00 0.00 0.00 0.00 0.00
0.03 0.02 0.02 0.01 0.02 0.02 0.03 0.07 0.12 0.22 0.42 0.59 0.48 0.40 0.31 0.19 0.16 0.05 0.00 0.01 0.01 0.00 0.00 0.00 0.00 0.00 0.00 0.00 0.00 0.00 0.00 0.00 0.00 0.00 0.00 0.00 0.00 0.00 0.00 0.00 0.00 0.00 0.00 0.00 0.00 0.00 0.00
0.02 0.02 0.02 0.02 0.03 0.02 0.04 0.09 0.10 0.16 0.25 0.47 0.76 0.74 0.55 0.41 0.34 0.19 0.01 0.00 0.00 0.00 0.00 0.00 0.00 0.00 0.00 0.00 0.00 0.00 0.00 0.00 0.00 0.00 0.00 0.00 0.00 0.00 0.00 0.00 0.00 0.00 0.00 0.00 0.00 0.00 0.00
0.02 0.02 0.02 0.02 0.01 0.01 0.02 0.07 0.12 0.13 0.13 0.21 0.43 0.72 0.95 0.83 0.77 0.52 0.10 0.00 0.00 0.00 0.00 0.00 0.00 0.00 0.00 0.00 0.00 0.00 0.00 0.00 0.00 0.00 0.00 0.00 0.00 0.00 0.00 0.00 0.00 0.00 0.00 0.00 0.00 0.00 0.00
0.01 0.01 0.01 0.00 0.00 0.00 0.00 0.02 0.04 0.10 0.17 0.19 0.25 0.43 0.80 1.35 1.63 0.95 0.37 0.01 0.00 0.00 0.02 0.00 0.00 0.00 0.00 0.00 0.00 0.00 0.00 0.00 0.00 0.00 0.00 0.00 0.00 0.00 0.00 0.00 0.00 0.00 0.00 0.00 0.00 0.00 0.00
0.00 0.00 0.00 0.00 0.00 0.00 0.00 0.01 0.03 0.04 0.08 0.13 0.23 0.47 0.78 1.26 1.24 0.79 0.38 0.04 0.03 0.05 0.19 0.05 0.00 0.00 0.00 0.00 0.00 0.00 0.00 0.00 0.00 0.00 0.00 0.00 0.00 0.00 0.00 0.00 0.00 0.00 0.00 0.00 0.00 0.00 0.00
0.01 0.00 0.00 0.00 0.00 0.00 0.00 0.00 0.00 0.01 0.08 0.10 0.13 0.33 0.82 1.10 1.14 0.59 0.16 0.15 0.26 0.70 0.67 0.07 0.00 0.00 0.00 0.00 0.00 0.00 0.00 0.00 0.00 0.00 0.00 0.00 0.00 0.00 0.00 0.00 0.00 0.00 0.00 0.00 0.00 0.00 0.00
0.00 0.00 0.00 0.00 0.00 0.00 0.00 0.00 0.00 0.00 0.01 0.09 0.14 0.26 0.69 0.79 1.11 0.67 0.66 1.01 1.43 1.52 0.46 0.04 0.00 0.00 0.00 0.00 0.00 0.00 0.00 0.00 0.00 0.00 0.00 0.00 0.00 0.00 0.00 0.00 0.00 0.00 0.00 0.00 0.00 0.00 0.00
0.00 0.00 0.01 0.01 0.00 0.00 0.00 0.00 0.01 0.00 0.00 0.02 0.10 0.24 0.66 0.70 0.64 0.75 0.94 1.43 1.91 1.25 0.21 0.00 0.00 0.00 0.00 0.00 0.00 0.00 0.00 0.00 0.00 0.00 0.00 0.00 0.00 0.00 0.00 0.00 0.00 0.00 0.00 0.00 0.00 0.00 0.00
0.03 0.03 0.02 0.01 0.00 0.00 0.01 0.01 0.01 0.01 0.00 0.01 0.06 0.26 0.64 0.83 0.95 1.25 1.32 2.00 1.69 0.62 0.05 0.00 0.00 0.00 0.00 0.00 0.00 0.00 0.00 0.00 0.00 0.00 0.00 0.00 0.00 0.00 0.00 0.00 0.00 0.00 0.00 0.00 0.00 0.00 0.00
0.01 0.01 0.02 0.02 0.01 0.01 0.01 0.01 0.01 0.01 0.02 0.03 0.06 0.21 0.53 0.62 1.07 1.54 1.36 1.75 1.12 0.21 0.00 0.00 0.00 0.00 0.00 0.00 0.00 0.00 0.00 0.00 0.00 0.00 0.00 0.00 0.00 0.00 0.00 0.00 0.00 0.00 0.00 0.00 0.00 0.00 0.00
0.01 0.01 0.02 0.02 0.02 0.02 0.02 0.02 0.02 0.01 0.03 0.06 0.09 0.26 0.37 0.46 1.18 1.73 1.79 1.52 0.80 0.11 0.01 0.00 0.00 0.00 0.00 0.00 0.00 0.00 0.00 0.00 0.00 0.00 0.00 0.00 0.01 0.01 0.00 0.00 0.00 0.00 0.00 0.00 0.00 0.00 0.00
0.01 0.01 0.03 0.04 0.05 0.05 0.04 0.03 0.05 0.03 0.05 0.12 0.16 0.34 0.31 0.45 1.35 1.74 1.67 1.09 0.46 0.13 0.10 0.17 0.11 0.01 0.00 0.00 0.00 0.00 0.00 0.00 0.00 0.00 0.00 0.00 0.03 0.03 0.01 0.00 0.00 0.00 0.00 0.00 0.00 0.00 0.00
0.02 0.02 0.04 0.07 0.08 0.09 0.09 0.08 0.10 0.17 0.18 0.16 0.31 0.19 0.25 0.41 1.06 1.28 1.10 0.95 0.48 0.18 0.16 0.22 0.21 0.02 0.00 0.00 0.04 0.02 0.01 0.01 0.00 0.00 0.00 0.00 0.05 0.15 0.22 0.08 0.00 0.00 0.00 0.00 0.00 0.00 0.00
0.02 0.02 0.04 0.06 0.13 0.17 0.12 0.08 0.05 0.08 0.23 0.31 0.40 0.31 0.40 0.74 0.66 0.62 0.56 0.64 0.50 0.26 0.11 0.10 0.08 0.02 0.00 0.09 0.17 0.08 0.01 0.01 0.00 0.00 0.00 0.00 0.01 0.03 0.07 0.03 0.00 0.00 0.00 0.00 0.00 0.00 0.00
0.03 0.03 0.04 0.11 0.35 0.34 0.27 0.30 0.14 0.11 0.17 0.48 0.53 0.40 0.31 0.57 0.76 0.61 0.30 0.28 0.20 0.18 0.19 0.09 0.08 0.03 0.04 0.20 0.26 0.13 0.05 0.03 0.03 0.01 0.00 0.01 0.03 0.06 0.09 0.04 0.03 0.00 0.00 0.00 0.00 0.00 0.00
0.05 0.03 0.04 0.27 0.50 0.31 0.47 0.57 0.35 0.15 0.26 0.47 0.46 0.32 0.16 0.04 0.16 0.30 0.28 0.30 0.10 0.07 0.11 0.07 0.03 0.03 0.04 0.09 0.10 0.12 0.06 0.04 0.06 0.03 0.02 0.02 0.12 0.13 0.14 0.11 0.10 0.04 0.01 0.00 0.00 0.00 0.00
0.03 0.02 0.03 0.25 0.43 0.33 0.58 0.67 0.52 0.24 0.21 0.54 0.20 0.05 0.03 0.05 0.02 0.10 0.15 0.14 0.07 0.04 0.09 0.04 0.02 0.05 0.13 0.10 0.09 0.11 0.10 0.11 0.08 0.05 0.08 0.07 0.15 0.17 0.18 0.14 0.15 0.10 0.01 0.00 0.00 0.00 0.00
0.03 0.01 0.01 0.13 0.34 0.39 0.59 0.74 0.78 0.37 0.11 0.22 0.07 0.02 0.06 0.20 0.04 0.05 0.05 0.01 0.02 0.01 0.06 0.15 0.13 0.17 0.38 0.30 0.32 0.41 0.39 0.33 0.28 0.24 0.14 0.12 0.12 0.15 0.14 0.11 0.11 0.02 0.00 0.00 0.00 0.00 0.00
0.01 0.01 0.01 0.05 0.24 0.40 0.60 0.66 0.91 0.82 0.27 0.09 0.06 0.04 0.08 0.23 0.19 0.11 0.05 0.04 0.07 0.10 0.16 0.21 0.23 0.22 0.30 0.19 0.32 0.55 0.59 0.51 0.46 0.32 0.17 0.08 0.07 0.11 0.07 0.04 0.01 0.00 0.00 0.00 0.00 0.00 0.00
0.02 0.01 0.01 0.01 0.17 0.32 0.52 0.60 0.68 0.85 0.65 0.28 0.15 0.07 0.11 0.18 0.20 0.11 0.06 0.04 0.18 0.35 0.54 0.47 0.31 0.31 0.21 0.22 0.34 0.36 0.30 0.19 0.18 0.18 0.12 0.04 0.02 0.02 0.02 0.01 0.01 0.00 0.00 0.00 0.00 0.00 0.00
0.02 0.00 0.00 0.01 0.07 0.21 0.38 0.42 0.43 0.54 0.54 0.47 0.29 0.12 0.12 0.26 0.26 0.10 0.17 0.23 0.21 0.19 0.35 0.40 0.51 0.46 0.23 0.18 0.24 0.24 0.18 0.08 0.06 0.05 0.10 0.08 0.05 0.03 0.02 0.01 0.00 0.00 0.00 0.00 0.00 0.00 0.00
0.00 0.00 0.00 0.01 0.01 0.06 0.19 0.27 0.28 0.24 0.30 0.26 0.36 0.16 0.07 0.26 0.44 0.19 0.12 0.14 0.15 0.09 0.20 0.26 0.16 0.19 0.14 0.10 0.10 0.12 0.08 0.06 0.03 0.02 0.01 0.03 0.03 0.03 0.03 0.02 0.00 0.00 0.00 0.00 0.00 0.00 0.00
0.00 0.00 0.00 0.01 0.00 0.01 0.08 0.16 0.21 0.19 0.16 0.11 0.25 0.14 0.07 0.16 0.40 0.22 0.17 0.09 0.04 0.02 0.02 0.05 0.03 0.04 0.03 0.04 0.04 0.02 0.01 0.02 0.02 0.05 0.02 0.02 0.00 0.00 0.00 0.00 0.00 0.00 0.00 0.00 0.00 0.00 0.00

GFSGBSN_prec_precacc6_201.txt.gz
Total_Precipitation_Accumulation
0.00 0.00 0.00 0.00 0.00 0.00 0.00 0.00 0.02 0.04 0.06 0.06 0.06 0.04 0.03 0.02 0.01 0.00 0.00 0.00 0.00 0.00 0.00 0.00 0.00 0.00 0.00 0.00 0.00 0.00 0.00 0.00 0.00 0.00 0.00 0.00 0.00 0.00 0.00 0.00 0.00 0.00 0.00 0.00 0.00 0.00 0.00
0.00 0.00 0.00 0.00 0.00 0.00 0.00 0.00 0.01 0.03 0.04 0.06 0.06 0.06 0.06 0.04 0.03 0.01 0.00 0.00 0.00 0.00 0.00 0.00 0.00 0.00 0.00 0.00 0.00 0.00 0.00 0.00 0.00 0.00 0.00 0.00 0.00 0.00 0.00 0.00 0.00 0.00 0.00 0.00 0.00 0.00 0.00
0.02 0.01 0.01 0.00 0.00 0.00 0.00 0.00 0.00 0.00 0.02 0.07 0.10 0.13 0.11 0.11 0.08 0.04 0.01 0.00 0.00 0.00 0.00 0.00 0.00 0.00 0.00 0.00 0.00 0.00 0.00 0.00 0.00 0.00 0.00 0.00 0.00 0.00 0.00 0.00 0.00 0.00 0.00 0.00 0.00 0.00 0.00
0.01 0.01 0.01 0.00 0.00 0.00 0.00 0.00 0.00 0.00 0.01 0.06 0.11 0.15 0.20 0.18 0.17 0.15 0.08 0.03 0.00 0.00 0.00 0.00 0.00 0.00 0.00 0.00 0.00 0.00 0.00 0.00 0.00 0.00 0.00 0.00 0.00 0.00 0.00 0.00 0.00 0.00 0.00 0.00 0.00 0.00 0.00
0.02 0.02 0.01 0.01 0.01 0.00 0.00 0.00 0.00 0.00 0.00 0.03 0.11 0.17 0.18 0.22 0.21 0.19 0.18 0.13 0.06 0.00 0.00 0.00 0.00 0.00 0.00 0.00 0.00 0.00 0.00 0.00 0.00 0.00 0.00 0.00 0.00 0.00 0.00 0.00 0.00 0.00 0.00 0.00 0.00 0.00 0.00
0.03 0.02 0.01 0.01 0.02 0.01 0.01 0.01 0.00 0.00 0.00 0.01 0.05 0.13 0.26 0.26 0.29 0.28 0.27 0.30 0.27 0.11 0.02 0.02 0.01 0.00 0.00 0.00 0.00 0.00 0.00 0.00 0.00 0.00 0.00 0.00 0.00 0.00 0.00 0.00 0.00 0.00 0.00 0.00 0.00 0.00 0.00
0.04 0.03 0.01 0.01 0.01 0.02 0.03 0.03 0.03 0.02 0.00 0.00 0.02 0.05 0.13 0.27 0.39 0.52 0.62 0.78 0.82 0.46 0.08 0.01 0.00 0.00 0.00 0.00 0.00 0.00 0.00 0.00 0.00 0.00 0.00 0.00 0.00 0.00 0.00 0.00 0.00 0.00 0.00 0.00 0.00 0.00 0.00
0.04 0.03 0.01 0.00 0.00 0.01 0.03 0.04 0.04 0.03 0.01 0.00 0.00 0.02 0.06 0.19 0.39 0.76 0.96 0.90 0.53 0.16 0.07 0.01 0.00 0.00 0.00 0.00 0.00 0.00 0.00 0.00 0.00 0.00 0.00 0.00 0.00 0.00 0.00 0.00 0.00 0.00 0.00 0.00 0.00 0.00 0.00
0.03 0.04 0.02 0.00 0.00 0.01 0.01 0.02 0.02 0.02 0.01 0.00 0.00 0.00 0.03 0.11 0.31 0.86 1.26 0.78 0.25 0.17 0.17 0.03 0.00 0.00 0.00 0.00 0.00 0.00 0.00 0.00 0.00 0.00 0.00 0.00 0.00 0.00 0.00 0.00 0.00 0.00 0.00 0.00 0.00 0.00 0.00
0.05 0.05 0.03 0.01 0.00 0.01 0.01 0.00 0.00 0.00 0.00 0.00 0.00 0.00 0.02 0.08 0.40 0.65 1.03 0.54 0.33 0.44 0.54 0.16 0.00 0.00 0.00 0.00 0.00 0.00 0.00 0.00 0.00 0.00 0.00 0.00 0.00 0.00 0.00 0.00 0.00 0.00 0.00 0.00 0.00 0.00 0.00
0.05 0.08 0.06 0.03 0.02 0.01 0.01 0.00 0.00 0.00 0.00 0.00 0.00 0.00 0.04 0.20 0.32 0.45 0.45 0.34 0.57 1.02 1.36 0.27 0.01 0.00 0.00 0.00 0.00 0.00 0.00 0.00 0.00 0.00 0.00 0.00 0.00 0.00 0.00 0.00 0.00 0.00 0.00 0.00 0.00 0.00 0.00
0.07 0.05 0.04 0.05 0.04 0.02 0.01 0.00 0.00 0.00 0.00 0.00 0.00 0.00 0.02 0.17 0.33 0.25 0.22 0.50 1.27 2.04 1.55 0.14 0.00 0.00 0.00 0.00 0.00 0.00 0.00 0.00 0.00 0.00 0.00 0.00 0.00 0.00 0.00 0.00 0.00 0.00 0.00 0.00 0.00 0.00 0.00
0.03 0.02 0.03 0.03 0.02 0.01 0.00 0.01 0.01 0.01 0.00 0.00 0.00 0.00 0.02 0.10 0.23 0.28 0.31 0.90 2.08 2.11 0.91 0.09 0.00 0.00 0.00 0.00 0.00 0.00 0.00 0.00 0.00 0.00 0.00 0.00 0.00 0.00 0.00 0.00 0.00 0.00 0.00 0.01 0.01 0.00 0.00
0.03 0.05 0.03 0.02 0.02 0.02 0.02 0.03 0.03 0.03 0.02 0.02 0.01 0.01 0.01 0.05 0.07 0.43 0.94 1.43 1.67 1.19 0.50 0.02 0.00 0.00 0.00 0.00 0.00 0.00 0.00 0.00 0.00 0.00 0.00 0.00 0.00 0.00 0.00 0.00 0.00 0.00 0.00 0.01 0.02 0.00 0.00
0.02 0.01 0.01 0.01 0.02 0.02 0.02 0.02 0.02 0.01 0.01 0.01 0.03 0.01 0.00 0.02 0.04 0.37 1.36 1.76 1.34 0.61 0.13 0.00 0.00 0.01 0.00 0.00 0.00 0.00 0.00 0.00 0.00 0.00 0.00 0.00 0.00 0.00 0.00 0.00 0.00 0.00 0.00 0.00 0.01 0.04 0.06
0.06 0.04 0.03 0.02 0.02 0.02 0.02 0.02 0.02 0.02 0.02 0.05 0.04 0.02 0.00 0.00 0.04 0.31 1.29 1.40 0.91 0.28 0.01 0.00 0.02 0.01 0.00 0.00 0.00 0.00 0.00 0.00 0.00 0.00 0.00 0.00 0.00 0.00 0.00 0.00 0.00 0.00 0.00 0.01 0.10 0.12 0.06
0.04 0.02 0.02 0.03 0.02 0.01 0.01 0.01 0.02 0.02 0.03 0.10 0.10 0.06 0.00 0.00 0.06 0.49 1.02 0.85 0.48 0.17 0.02 0.00 0.01 0.01 0.00 0.00 0.00 0.00 0.00 0.00 0.00 0.00 0.00 0.00 0.00 0.00 0.00 0.00 0.00 0.00 0.00 0.00 0.01 0.00 0.00
0.01 0.02 0.01 0.01 0.01 0.01 0.02 0.03 0.05 0.06 0.09 0.15 0.15 0.12 0.00 0.02 0.09 0.44 0.60 0.49 0.26 0.05 0.04 0.03 0.01 0.02 0.01 0.00 0.00 0.00 0.00 0.00 0.00 0.00 0.00 0.00 0.00 0.00 0.00 0.00 0.00 0.00 0.00 0.00 0.00 0.00 0.00
0.01 0.02 0.01 0.01 0.03 0.03 0.03 0.03 0.05 0.07 0.14 0.16 0.18 0.05 0.05 0.16 0.15 0.16 0.23 0.28 0.17 0.03 0.07 0.19 0.05 0.01 0.02 0.02 0.01 0.00 0.00 0.00 0.00 0.00 0.00 0.00 0.06 0.08 0.03 0.00 0.00 0.00 0.00 0.00 0.00 0.00 0.00
0.06 0.06 0.04 0.03 0.04 0.04 0.06 0.06 0.07 0.11 0.15 0.24 0.30 0.16 0.06 0.06 0.13 0.08 0.13 0.17 0.22 0.07 0.02 0.17 0.12 0.00 0.02 0.07 0.07 0.01 0.00 0.00 0.00 0.00 0.00 0.00 0.00 0.00 0.01 0.00 0.00 0.00 0.00 0.00 0.00 0.00 0.00
0.05 0.04 0.04 0.02 0.02 0.03 0.04 0.04 0.07 0.12 0.19 0.56 0.71 0.25 0.03 0.03 0.02 0.08 0.14 0.12 0.10 0.12 0.08 0.04 0.13 0.04 0.01 0.10 0.11 0.05 0.01 0.00 0.00 0.00 0.00 0.01 0.03 0.00 0.00 0.00 0.00 0.00 0.00 0.00 0.00 0.00 0.00
0.03 0.03 0.02 0.02 0.03 0.04 0.03 0.03 0.07 0.13 0.34 0.87 0.58 0.16 0.07 0.01 0.00 0.01 0.11 0.14 0.06 0.07 0.12 0.10 0.08 0.06 0.01 0.02 0.04 0.04 0.02 0.00 0.00 0.00 0.01 0.04 0.06 0.00 0.01 0.02 0.02 0.01 0.00 0.01 0.00 0.00 0.00
0.02 0.02 0.02 0.04 0.02 0.02 0.04 0.08 0.13 0.17 0.41 0.79 0.34 0.12 0.14 0.05 0.01 0.02 0.06 0.08 0.03 0.02 0.03 0.04 0.02 0.00 0.00 0.00 0.00 0.00 0.02 0.06 0.03 0.01 0.01 0.06 0.09 0.08 0.11 0.12 0.09 0.18 0.03 0.00 0.00 0.00 0.00
0.01 0.02 0.03 0.04 0.04 0.04 0.07 0.12 0.13 0.18 0.36 0.46 0.18 0.06 0.31 0.18 0.02 0.02 0.01 0.03 0.01 0.01 0.01 0.01 0.00 0.01 0.01 0.01 0.01 0.04 0.13 0.21 0.27 0.27 0.15 0.15 0.16 0.28 0.33 0.22 0.22 0.13 0.01 0.00 0.00 0.00 0.00
0.02 0.01 0.03 0.04 0.05 0.04 0.09 0.12 0.12 0.18 0.29 0.51 0.34 0.08 0.14 0.18 0.03 0.01 0.01 0.01 0.00 0.01 0.01 0.01 0.00 0.01 0.02 0.01 0.09 0.41 0.54 0.51 0.47 0.48 0.49 0.39 0.26 0.33 0.41 0.25 0.07 0.01 0.00 0.00 0.00 0.00 0.00
0.01 0.01 0.05 0.03 0.02 0.04 0.09 0.11 0.17 0.32 0.32 0.51 0.47 0.12 0.08 0.16 0.08 0.01 0.00 0.00 0.00 0.01 0.07 0.07 0.02 0.02 0.05 0.12 0.35 0.52 0.43 0.31 0.24 0.23 0.33 0.43 0.49 0.47 0.57 0.30 0.12 0.01 0.00 0.00 0.00 0.00 0.00
0.02 0.04 0.01 0.01 0.01 0.03 0.12 0.20 0.25 0.37 0.26 0.46 0.47 0.12 0.10 0.17 0.05 0.02 0.03 0.01 0.00 0.01 0.09 0.13 0.11 0.23 0.26 0.32 0.47 0.47 0.33 0.13 0.07 0.03 0.10 0.19 0.28 0.35 0.37 0.21 0.06 0.00 0.00 0.00 0.01 0.01 0.00
0.03 0.01 0.00 0.00 0.01 0.05 0.17 0.21 0.23 0.26 0.31 0.32 0.51 0.16 0.23 0.17 0.03 0.02 0.03 0.02 0.01 0.02 0.05 0.17 0.15 0.25 0.34 0.30 0.33 0.35 0.25 0.14 0.04 0.02 0.00 0.02 0.06 0.13 0.17 0.17 0.05 0.00 0.00 0.00 0.00 0.00 0.00
0.00 0.00 0.00 0.01 0.02 0.06 0.15 0.20 0.19 0.19 0.35 0.17 0.35 0.44 0.35 0.23 0.07 0.01 0.01 0.01 0.01 0.02 0.01 0.02 0.07 0.09 0.11 0.14 0.16 0.17 0.11 0.05 0.01 0.03 0.02 0.00 0.00 0.01 0.02 0.02 0.01 0.00 0.00 0.00 0.00 0.00 0.00

GFSGBSN_prec_precacc6_204.txt.gz
Total_Precipitation_Accumulation
0.01 0.01 0.00 0.00 0.00 0.00 0.00 0.00 0.00 0.00 0.00 0.00 0.00 0.02 0.02 0.02 0.03 0.03 0.02 0.00 0.00 0.00 0.00 0.00 0.00 0.00 0.00 0.00 0.00 0.00 0.00 0.00 0.00 0.00 0.00 0.00 0.00 0.00 0.00 0.00 0.00 0.00 0.00 0.00 0.00 0.00 0.00
0.01 0.01 0.01 0.01 0.00 0.00 0.00 0.00 0.00 0.00 0.00 0.00 0.00 0.01 0.03 0.04 0.03 0.04 0.04 0.02 0.01 0.00 0.00 0.00 0.00 0.00 0.00 0.00 0.00 0.00 0.00 0.00 0.00 0.00 0.00 0.00 0.00 0.00 0.00 0.00 0.00 0.00 0.00 0.00 0.00 0.00 0.00
0.02 0.02 0.01 0.01 0.00 0.00 0.00 0.00 0.00 0.00 0.00 0.00 0.00 0.00 0.01 0.06 0.08 0.06 0.05 0.03 0.02 0.02 0.00 0.00 0.00 0.00 0.00 0.00 0.00 0.00 0.00 0.00 0.00 0.00 0.00 0.00 0.00 0.00 0.00 0.00 0.00 0.00 0.00 0.00 0.00 0.00 0.00
0.02 0.02 0.01 0.01 0.01 0.00 0.00 0.00 0.00 0.00 0.00 0.00 0.00 0.00 0.01 0.04 0.10 0.14 0.10 0.07 0.07 0.07 0.04 0.00 0.00 0.00 0.00 0.00 0.00 0.00 0.00 0.00 0.00 0.00 0.00 0.00 0.00 0.00 0.00 0.00 0.00 0.00 0.00 0.00 0.00 0.00 0.00
0.03 0.03 0.03 0.03 0.02 0.00 0.00 0.00 0.00 0.00 0.00 0.00 0.00 0.00 0.00 0.01 0.05 0.13 0.18 0.15 0.14 0.19 0.21 0.05 0.00 0.00 0.00 0.00 0.00 0.00 0.00 0.00 0.00 0.00 0.00 0.00 0.00 0.00 0.00 0.00 0.00 0.00 0.00 0.00 0.00 0.00 0.00
0.04 0.05 0.04 0.04 0.03 0.01 0.00 0.00 0.00 0.00 0.00 0.00 0.00 0.00 0.01 0.02 0.04 0.09 0.22 0.32 0.33 0.46 0.51 0.23 0.03 0.00 0.00 0.00 0.00 0.00 0.00 0.00 0.00 0.00 0.00 0.00 0.00 0.00 0.00 0.00 0.00 0.00 0.00 0.00 0.00 0.00 0.00
0.05 0.05 0.05 0.04 0.03 0.03 0.02 0.02 0.03 0.02 0.00 0.00 0.00 0.00 0.00 0.01 0.03 0.06 0.25 0.76 0.90 0.84 0.60 0.21 0.02 0.00 0.00 0.00 0.00 0.00 0.00 0.00 0.00 0.00 0.00 0.00 0.00 0.00 0.00 0.00 0.00 0.00 0.00 0.00 0.00 0.00 0.00
0.06 0.06 0.05 0.04 0.03 0.02 0.01 0.00 0.01 0.02 0.01 0.00 0.00 0.00 0.00 0.01 0.05 0.10 0.28 0.64 0.54 0.28 0.27 0.07 0.00 0.00 0.00 0.00 0.00 0.00 0.00 0.00 0.00 0.00 0.00 0.00 0.00 0.00 0.00 0.00 0.00 0.00 0.00 0.00 0.00 0.00 0.00
0.04 0.06 0.07 0.05 0.03 0.01 0.01 0.01 0.01 0.01 0.01 0.00 0.00 0.00 0.00 0.00 0.01 0.12 0.31 0.37 0.27 0.22 0.30 0.17 0.03 0.00 0.00 0.00 0.00 0.00 0.00 0.00 0.00 0.00 0.00 0.00 0.00 0.00 0.00 0.00 0.00 0.00 0.00 0.00 0.00 0.00 0.00
0.05 0.06 0.06 0.05 0.04 0.01 0.00 0.00 0.00 0.00 0.00 0.00 0.00 0.00 0.00 0.00 0.03 0.06 0.22 0.25 0.34 0.49 0.75 0.34 0.04 0.01 0.00 0.00 0.00 0.00 0.00 0.00 0.00 0.00 0.00 0.00 0.00 0.00 0.00 0.00 0.00 0.00 0.00 0.00 0.00 0.00 0.00
0.04 0.08 0.11 0.11 0.07 0.03 0.01 0.00 0.00 0.00 0.00 0.00 0.00 0.01 0.01 0.01 0.04 0.05 0.07 0.19 0.48 0.98 1.12 0.29 0.02 0.00 0.00 0.00 0.00 0.00 0.00 0.00 0.00 0.00 0.00 0.00 0.00 0.00 0.00 0.00 0.00 0.00 0.00 0.00 0.00 0.00 0.00
0.14 0.11 0.10 0.10 0.09 0.07 0.05 0.03 0.01 0.00 0.00 0.00 0.01 0.01 0.03 0.01 0.01 0.03 0.07 0.23 0.64 1.56 1.23 0.16 0.00 0.00 0.00 0.00 0.00 0.00 0.00 0.00 0.00 0.00 0.00 0.00 0.00 0.00 0.00 0.00 0.00 0.00 0.00 0.00 0.00 0.00 0.00
0.04 0.05 0.06 0.06 0.07 0.08 0.05 0.04 0.02 0.01 0.01 0.01 0.01 0.02 0.02 0.02 0.00 0.02 0.12 0.30 0.87 1.40 0.85 0.19 0.01 0.00 0.00 0.00 0.00 0.00 0.00 0.00 0.00 0.00 0.00 0.00 0.00 0.00 0.00 0.00 0.00 0.00 0.00 0.00 0.00 0.00 0.00
0.03 0.05 0.05 0.06 0.06 0.05 0.04 0.03 0.03 0.05 0.05 0.05 0.04 0.05 0.02 0.00 0.00 0.04 0.47 0.91 0.80 0.65 0.53 0.08 0.00 0.00 0.00 0.00 0.00 0.00 0.00 0.00 0.00 0.00 0.00 0.00 0.00 0.00 0.00 0.00 0.00 0.00 0.00 0.00 0.00 0.00 0.00
0.03 0.02 0.01 0.01 0.03 0.03 0.03 0.03 0.04 0.04 0.03 0.02 0.04 0.02 0.00 0.00 0.01 0.07 0.51 1.15 0.78 0.35 0.20 0.06 0.01 0.02 0.00 0.00 0.00 0.00 0.00 0.02 0.00 0.00 0.00 0.00 0.00 0.00 0.00 0.00 0.00 0.00 0.00 0.00 0.00 0.01 0.02
0.07 0.05 0.05 0.04 0.04 0.04 0.04 0.04 0.04 0.05 0.05 0.10 0.06 0.01 0.00 0.00 0.00 0.07 0.58 0.66 0.42 0.25 0.09 0.02 0.04 0.03 0.00 0.00 0.00 0.00 0.00 0.00 0.00 0.00 0.00 0.00 0.00 0.00 0.00 0.00 0.00 0.00 0.00 0.00 0.01 0.04 0.03
0.06 0.05 0.04 0.04 0.03 0.03 0.02 0.02 0.02 0.02 0.03 0.13 0.11 0.05 0.00 0.00 0.03 0.09 0.33 0.27 0.11 0.12 0.17 0.16 0.05 0.06 0.03 0.00 0.00 0.00 0.00 0.00 0.00 0.00 0.00 0.00 0.00 0.00 0.00 0.00 0.00 0.00 0.00 0.00 0.00 0.00 0.00
0.01 0.02 0.01 0.01 0.01 0.02 0.02 0.02 0.04 0.05 0.11 0.22 0.10 0.10 0.01 0.01 0.05 0.06 0.09 0.07 0.03 0.03 0.14 0.28 0.17 0.10 0.03 0.01 0.00 0.00 0.00 0.00 0.00 0.00 0.00 0.00 0.00 0.00 0.00 0.00 0.00 0.00 0.00 0.00 0.00 0.00 0.00
0.01 0.02 0.01 0.01 0.02 0.03 0.03 0.03 0.04 0.07 0.20 0.12 0.17 0.07 0.03 0.16 0.14 0.02 0.01 0.01 0.01 0.01 0.09 0.38 0.26 0.12 0.07 0.02 0.01 0.00 0.00 0.00 0.00 0.00 0.00 0.00 0.00 0.01 0.01 0.00 0.00 0.00 0.00 0.00 0.00 0.00 0.00
0.07 0.08 0.08 0.07 0.05 0.05 0.07 0.07 0.05 0.10 0.20 0.20 0.25 0.18 0.08 0.05 0.09 0.05 0.02 0.01 0.03 0.01 0.01 0.19 0.25 0.12 0.17 0.16 0.05 0.01 0.00 0.00 0.00 0.00 0.00 0.00 0.01 0.02 0.02 0.00 0.00 0.00 0.00 0.00 0.00 0.00 0.00
0.05 0.06 0.07 0.06 0.04 0.05 0.06 0.07 0.05 0.09 0.18 0.41 0.60 0.23 0.03 0.03 0.01 0.01 0.06 0.05 0.01 0.01 0.01 0.03 0.14 0.14 0.12 0.23 0.18 0.05 0.01 0.00 0.00 0.00 0.00 0.02 0.12 0.04 0.00 0.00 0.00 0.00 0.00 0.00 0.00 0.00 0.00
0.03 0.05 0.04 0.03 0.04 0.03 0.02 0.02 0.03 0.07 0.20 0.50 0.49 0.14 0.06 0.01 0.00 0.00 0.01 0.03 0.01 0.01 0.03 0.04 0.05 0.07 0.09 0.16 0.13 0.11 0.03 0.00 0.00 0.00 0.02 0.10 0.21 0.03 0.00 0.00 0.00 0.00 0.00 0.00 0.00 0.00 0.00
0.02 0.04 0.05 0.05 0.04 0.02 0.03 0.04 0.04 0.09 0.28 0.49 0.23 0.08 0.12 0.12 0.02 0.03 0.01 0.00 0.01 0.01 0.01 0.02 0.00 0.00 0.04 0.09 0.05 0.07 0.04 0.05 0.02 0.01 0.03 0.16 0.33 0.21 0.12 0.02 0.01 0.12 0.03 0.00 0.00 0.00 0.00
0.02 0.04 0.05 0.04 0.03 0.04 0.04 0.07 0.07 0.12 0.26 0.34 0.18 0.07 0.22 0.18 0.06 0.03 0.00 0.00 0.00 0.01 0.00 0.01 0.01 0.01 0.01 0.01 0.04 0.10 0.17 0.15 0.20 0.20 0.10 0.15 0.27 0.51 0.51 0.23 0.29 0.24 0.02 0.00 0.00 0.00 0.00
0.04 0.04 0.04 0.06 0.10 0.07 0.04 0.05 0.09 0.14 0.24 0.42 0.34 0.16 0.20 0.14 0.03 0.01 0.00 0.00 0.00 0.01 0.01 0.01 0.01 0.02 0.03 0.02 0.10 0.34 0.43 0.28 0.18 0.25 0.38 0.36 0.31 0.47 0.45 0.38 0.24 0.04 0.00 0.00 0.00 0.00 0.00
0.01 0.03 0.08 0.06 0.02 0.02 0.01 0.04 0.09 0.14 0.22 0.43 0.51 0.25 0.19 0.22 0.05 0.01 0.00 0.00 0.00 0.00 0.04 0.03 0.01 0.03 0.11 0.19 0.30 0.41 0.39 0.27 0.18 0.10 0.15 0.29 0.52 0.70 0.71 0.41 0.16 0.01 0.00 0.00 0.00 0.04 0.00
0.02 0.05 0.02 0.01 0.01 0.01 0.05 0.12 0.17 0.20 0.24 0.42 0.57 0.25 0.32 0.35 0.07 0.01 0.02 0.01 0.00 0.01 0.05 0.07 0.05 0.14 0.22 0.33 0.44 0.41 0.28 0.09 0.05 0.03 0.05 0.14 0.26 0.44 0.53 0.33 0.10 0.00 0.00 0.00 0.01 0.02 0.00
0.02 0.01 0.01 0.01 0.02 0.03 0.07 0.13 0.18 0.16 0.16 0.29 0.37 0.19 0.54 0.43 0.08 0.01 0.01 0.01 0.01 0.03 0.04 0.10 0.12 0.20 0.32 0.34 0.45 0.35 0.31 0.16 0.04 0.01 0.00 0.01 0.04 0.12 0.19 0.18 0.05 0.00 0.00 0.00 0.00 0.00 0.00
0.01 0.01 0.01 0.01 0.02 0.03 0.07 0.11 0.11 0.12 0.16 0.14 0.19 0.25 0.52 0.55 0.22 0.01 0.01 0.01 0.01 0.02 0.01 0.02 0.08 0.13 0.17 0.22 0.20 0.25 0.19 0.11 0.08 0.04 0.00 0.00 0.00 0.00 0.01 0.03 0.00 0.00 0.00 0.00 0.00 0.00 0.00